Location: Unnamed
(38.6326°N, 90.2727°W)
Time: 14:02:46
(UTC-06:00)

ISS - Pass Details

Date: 24 April 2020
Orbit: 417 x 422 km, 51.6° (Epoch: 26 February)

Event Time Altitude Azimuth Distance (km) Brightness Sun altitude
Exits shadow 05:13:47 - 194° (SSW) 1,626 -1.2 -11.3°
Reaches altitude 10° 05:14:10 10° 191° (S) 1,490 -1.3 -11.3°
Maximum altitude 05:17:01 26° 133° (SE) 869 -1.9 -10.8°
Drops below altitude 10° 05:19:53 10° 74° (ENE) 1,507 0.6 -10.3°
Sets 05:22:12 0° 62° (ENE) 2,381 2.4 -9.8°
